Tracking 20623 objects as of 3-Apr-2020
HD Live streaming from Space Station
objects crossing your sky now

COSMOS 1927

Track COSMOS 1927 now!
10-day predictions
COSMOS 1927 is classified as:


NORAD ID: 18940
Int'l Code: 1988-016D
Perigee: 1,462.4 km
Apogee: 1,473.5 km
Inclination: 74.0 °
Period: 115.1 minutes
Semi major axis: 7838 km
RCS: 0.7207 m2 (medium)
Launch date: March 11, 1988
Source: Commonwealth of Independent States (former USSR) (CIS)
Launch site: PLESETSK MISSILE AND SPACE COMPLEX (PKMTR)
aabbcc
Your satellite tracking list
Your tracking list is empty




NASA's NSSDC Master Catalog

Two Line Element Set (TLE):
1 18940U 88016D   20093.89308427 -.00000012 +00000-0 +23364-4 0  9996
2 18940 074.0065 052.7407 0007065 032.7115 357.2257 12.50878669464139
Source of the keplerian elements: AFSPC